Folgueroles





Hora UTC 13:50
Temperatura 12.1 ºC
Humitat 70.0 %
Pressió 1026.4 hPa
Pluja 0.0 mm
Velocitat vent 14.5 km/h
Direcció vent ENE

Dades diàries 2021-03-01



Hora UTC (hivern +1h; estiu +2h)
Temperatura (ºC) Humitat (%) Pressió (hPa) Velocitat vent (km/h) Precipitació (mm)
Hora UTC Aire Humitat Pressió Vel. Dir. Vel. Max Dir. Intent. màx 5 min.
00:05 6.3 88.0 1027.2 1.6 NE 1.6 0.0
00:10 6.6 89.0 1027.2 1.6 E 11.3 0.0
00:15 7.3 87.0 1027.1 8.0 E 16.1 0.0
00:20 7.8 85.0 1027.1 4.8 E 16.1 0.0
00:25 8.0 84.0 1027.2 11.3 E 12.9 0.0
00:30 8.1 84.0 1027.1 12.9 ENE 14.5 0.0
00:35 8.1 84.0 1027.0 8.0 ENE 17.7 0.0
00:40 8.1 84.0 1027.1 9.7 NE 17.7 0.0
00:45 8.1 84.0 1027.2 6.4 ENE 14.5 0.0
00:50 8.1 84.0 1027.2 9.7 ENE 12.9 0.0
00:55 8.1 85.0 1027.2 3.2 ENE 12.9 0.0
01:00 8.1 85.0 1027.2 9.7 NNE 9.7 0.0
01:05 7.9 85.0 1027.2 12.9 ENE 12.9 0.0
01:10 7.9 84.0 1027.0 4.8 NE 14.5 0.0
01:15 8.0 84.0 1027.1 6.4 ENE 14.5 0.0
01:20 7.9 84.0 1027.1 6.4 E 12.9 0.0
01:25 7.9 84.0 1027.0 8.0 ENE 9.7 0.0
01:30 7.9 84.0 1027.0 4.8 NE 9.7 0.0
01:35 7.9 84.0 1027.0 8.0 ENE 11.3 0.0
01:40 7.9 84.0 1027.1 3.2 E 14.5 0.0
01:45 7.9 84.0 1027.1 6.4 E 14.5 0.0
01:50 8.0 84.0 1027.1 8.0 ENE 9.7 0.0
01:55 8.0 84.0 1027.1 4.8 E 12.9 0.0
02:00 8.0 84.0 1027.1 6.4 ENE 12.9 0.0
02:05 8.0 84.0 1027.1 6.4 ENE 8.0 0.0
02:10 7.9 84.0 1027.1 3.2 E 8.0 0.0
02:15 7.9 85.0 1027.0 4.8 E 8.0 0.0
02:20 7.8 85.0 1026.9 6.4 E 8.0 0.0
02:25 7.8 85.0 1026.9 4.8 NE 9.7 0.0
02:30 7.8 84.0 1027.0 0.0 E 9.7 0.0
02:35 7.8 84.0 1027.1 3.2 ENE 6.4 0.0
02:40 7.8 84.0 1027.0 1.6 NNE 6.4 0.0
02:45 7.7 84.0 1027.1 0.0 NNE 6.4 0.0
02:50 7.4 85.0 1027.0 0.0 NNE 4.8 0.0
02:55 7.2 85.0 1026.9 1.6 NNE 3.2 0.0
03:00 6.9 86.0 1026.9 1.6 NNE 4.8 0.0
03:05 6.7 87.0 1027.0 0.0 NNE 4.8 0.0
03:10 6.6 87.0 1027.0 0.0 NNE 4.8 0.0
03:15 6.4 87.0 1027.1 0.0 NNE 0.0 0.0
03:20 6.3 87.0 1027.1 1.6 NNE 3.2 0.0
03:25 6.2 87.0 1027.1 1.6 NNE 4.8 0.0
03:30 6.0 88.0 1027.1 3.2 NNE 4.8 0.0
03:35 5.8 88.0 1027.1 3.2 NNE 4.8 0.0
03:40 5.7 88.0 1027.1 0.0 NNE 4.8 0.0
03:45 5.6 88.0 1027.1 0.0 NNE 3.2 0.0
03:50 5.4 88.0 1027.2 4.8 NNE 6.4 0.0
03:55 5.3 89.0 1027.2 1.6 NNE 6.4 0.0
04:00 5.3 89.0 1027.2 3.2 NNE 4.8 0.0
04:05 5.1 88.0 1027.1 3.2 N 4.8 0.0
04:10 5.0 88.0 1027.3 0.0 N 4.8 0.0
04:15 4.9 88.0 1027.2 0.0 N 4.8 0.0
04:20 4.8 88.0 1027.3 0.0 N 4.8 0.0
04:25 4.8 89.0 1027.3 0.0 N 0.0 0.0
04:30 4.8 89.0 1027.4 0.0 N 0.0 0.0
04:35 4.7 89.0 1027.4 0.0 N 0.0 0.0
04:40 4.6 88.0 1027.3 0.0 N 0.0 0.0
04:45 4.4 88.0 1027.2 0.0 N 0.0 0.0
04:50 4.3 88.0 1027.3 0.0 N 0.0 0.0
04:55 4.2 88.0 1027.2 0.0 N 0.0 0.0
05:00 3.9 88.0 1027.2 0.0 N 0.0 0.0
05:05 3.8 88.0 1027.3 0.0 N 0.0 0.0
05:10 3.8 89.0 1027.3 0.0 N 0.0 0.0
05:15 3.7 89.0 1027.3 0.0 N 0.0 0.0
05:20 3.7 89.0 1027.3 0.0 N 0.0 0.0
05:25 3.7 89.0 1027.3 0.0 N 0.0 0.0
05:30 3.6 90.0 1027.2 0.0 N 0.0 0.0
05:35 3.6 90.0 1027.2 0.0 N 0.0 0.0
05:40 3.7 90.0 1027.3 1.6 N 4.8 0.0
05:45 3.8 90.0 1027.2 0.0 NNE 6.4 0.0
05:50 3.8 90.0 1027.3 0.0 NNE 6.4 0.0
05:55 3.8 90.0 1027.3 0.0 NNE 1.6 0.0
06:00 3.8 90.0 1027.3 0.0 NNE 3.2 0.0
06:05 3.9 90.0 1027.2 0.0 NNE 3.2 0.0
06:10 4.0 89.0 1027.3 0.0 NNE 0.0 0.0
06:15 4.1 89.0 1027.2 0.0 NNE 0.0 0.0
06:20 4.1 89.0 1027.3 0.0 NNE 0.0 0.0
06:25 4.1 89.0 1027.3 0.0 NNE 3.2 0.0
06:30 4.1 89.0 1027.3 0.0 NNE 3.2 0.0
06:35 4.1 89.0 1027.3 0.0 NNE 1.6 0.0
06:40 4.1 88.0 1027.4 0.0 NNE 0.0 0.0
06:45 4.0 88.0 1027.4 0.0 NNE 0.0 0.0
06:50 4.0 89.0 1027.5 0.0 NNE 0.0 0.0
06:55 4.1 89.0 1027.6 0.0 NNE 1.6 0.0
07:00 4.2 89.0 1027.7 0.0 NNE 1.6 0.0
07:05 4.3 89.0 1027.7 0.0 NNE 1.6 0.0
07:10 4.3 89.0 1027.8 0.0 NNE 1.6 0.0
07:15 4.5 89.0 1027.8 0.0 NNE 1.6 0.0
07:20 4.6 89.0 1027.9 0.0 NNE 0.0 0.0
07:25 4.6 89.0 1027.9 0.0 NNE 0.0 0.0
07:30 4.7 88.0 1027.9 0.0 NNE 0.0 0.0
07:35 4.8 88.0 1027.9 0.0 NNE 0.0 0.0
07:40 4.8 88.0 1027.9 0.0 NNE 0.0 0.0
07:45 4.9 87.0 1028.0 0.0 NNE 0.0 0.0
07:50 5.0 88.0 1027.9 0.0 NNE 0.0 0.0
07:55 5.1 87.0 1027.9 0.0 NNE 1.6 0.0
08:00 5.2 87.0 1027.8 3.2 NNE 3.2 0.0
08:05 5.3 87.0 1027.8 1.6 NNE 4.8 0.0
08:10 5.4 86.0 1027.7 1.6 NNE 4.8 0.0
08:15 5.6 86.0 1027.8 3.2 NNE 4.8 0.0
08:20 5.7 86.0 1027.6 1.6 NNW 4.8 0.0
08:25 5.8 86.0 1027.6 3.2 NNW 4.8 0.0
08:30 5.8 85.0 1027.7 0.0 NNW 4.8 0.0
08:35 5.9 85.0 1027.7 1.6 NNW 3.2 0.0
08:40 6.1 85.0 1027.7 0.0 NNW 3.2 0.0
08:45 6.1 84.0 1027.7 0.0 NNW 3.2 0.0
08:50 6.2 85.0 1027.7 3.2 NNW 4.8 0.0
08:55 6.2 85.0 1027.6 1.6 NNW 4.8 0.0
09:00 6.4 85.0 1027.7 1.6 NNW 4.8 0.0
09:05 6.5 84.0 1027.6 1.6 NNW 4.8 0.0
09:10 6.7 85.0 1027.6 3.2 NNW 4.8 0.0
09:15 6.8 84.0 1027.6 0.0 NNW 3.2 0.0
09:20 6.9 84.0 1027.5 1.6 NNW 3.2 0.0
09:25 7.2 84.0 1027.6 0.0 NNW 3.2 0.0
09:30 7.4 85.0 1027.6 0.0 NNW 1.6 0.0
09:35 7.7 84.0 1027.5 0.0 NW 3.2 0.0
09:40 7.9 84.0 1027.6 4.8 NE 4.8 0.0
09:45 8.6 84.0 1027.5 8.0 NNE 14.5 0.0
09:50 9.2 82.0 1027.6 16.1 E 17.7 0.0
09:55 9.5 81.0 1027.6 11.3 ENE 17.7 0.0
10:00 9.7 80.0 1027.6 9.7 NE 19.3 0.0
10:05 9.7 80.0 1027.6 6.4 ENE 19.3 0.0
10:10 9.8 80.0 1027.6 9.7 NE 14.5 0.0
10:15 9.9 80.0 1027.6 12.9 ENE 17.7 0.0
10:20 10.1 80.0 1027.6 3.2 E 17.7 0.0
10:25 10.2 79.0 1027.4 8.0 ENE 20.9 0.0
10:30 10.2 78.0 1027.5 11.3 ENE 20.9 0.0
10:35 10.2 79.0 1027.7 6.4 E 17.7 0.0
10:40 10.3 78.0 1027.8 9.7 ENE 17.7 0.0
10:45 10.3 78.0 1027.6 3.2 E 17.7 0.0
10:50 10.3 77.0 1027.6 12.9 E 14.5 0.0
10:55 10.3 77.0 1027.5 4.8 ENE 12.9 0.0
11:00 10.3 77.0 1027.5 6.4 E 19.3 0.0
11:05 10.4 78.0 1027.5 11.3 E 19.3 0.0
11:10 10.4 77.0 1027.5 6.4 E 16.1 0.0
11:15 10.6 77.0 1027.5 6.4 ENE 14.5 0.0
11:20 10.7 76.0 1027.5 16.1 ENE 19.3 0.0
11:25 10.8 75.0 1027.4 12.9 ENE 19.3 0.0
11:30 10.9 76.0 1027.3 12.9 ENE 22.5 0.0
11:35 11.0 75.0 1027.2 14.5 NE 22.5 0.0
11:40 11.0 74.0 1027.3 12.9 ENE 25.7 0.0
11:45 11.0 73.0 1027.1 12.9 ENE 25.7 0.0
11:50 11.1 74.0 1027.1 9.7 NE 22.5 0.0
11:55 11.1 73.0 1027.0 14.5 NE 22.5 0.0
12:00 11.2 73.0 1026.9 12.9 ENE 20.9 0.0
12:05 11.2 73.0 1026.9 16.1 ENE 20.9 0.0
12:10 11.3 74.0 1027.0 14.5 ENE 20.9 0.0
12:15 11.2 72.0 1026.9 17.7 ENE 24.1 0.0
12:15 11.1 73.0 1027.0 16.1 ENE 24.1 0.0
12:25 11.2 74.0 1026.9 17.7 ENE 22.5 0.0
12:30 11.3 73.0 1026.9 8.0 ENE 20.9 0.0
12:35 11.5 73.0 1026.8 14.5 ENE 24.1 0.0
12:40 11.5 73.0 1026.8 16.1 NE 24.1 0.0
12:45 11.5 73.0 1026.6 11.3 E 22.5 0.0
12:50 11.6 72.0 1026.6 14.5 NE 22.5 0.0
12:55 11.6 72.0 1026.6 16.1 E 24.1 0.0
13:00 11.4 71.0 1026.5 6.4 E 24.1 0.0
13:05 11.4 73.0 1026.5 11.3 NE 24.1 0.0
13:10 11.6 74.0 1026.4 24.1 E 25.7 0.0
13:15 11.6 73.0 1026.4 16.1 E 25.7 0.0
13:20 11.6 71.0 1026.4 9.7 ENE 24.1 0.0
13:25 11.6 71.0 1026.4 16.1 ENE 24.1 0.0
13:30 11.7 71.0 1026.4 9.7 E 22.5 0.0
13:35 11.7 70.0 1026.5 8.0 E 20.9 0.0
13:40 11.8 70.0 1026.4 8.0 SE 20.9 0.0
13:45 11.8 70.0 1026.4 6.4 E 17.7 0.0
13:50 12.1 70.0 1026.4 14.5 ENE 16.1 0.0
Màxima 12.1 90.0 1028.0 24.1 E 25.7 0.0
Mínima 3.6 70.0 1026.4
Total 0.0